Location: Street
(51.1247°N, 2.7429°W)
Time: 16:07:41
(UTC+00:00)

SR - Pass Details

Date: 26 November 2020
Orbit: 575 x 880 km, 66.7° (Epoch: 26 January)

Event Time Altitude Azimuth Distance (km) Brightness Sun altitude
Rises 23:47:47 0° 310° (NW) 2,995 - -60.0°
Reaches altitude 10° 23:51:14 10° 337° (NNW) 2,150 - -60.0°
Maximum altitude 23:53:41 14° 7° (N) 1,962 - -60.0°
Drops below altitude 10° 23:56:13 10° 37° (NE) 2,252 - -60.0°
Sets 00:00:00 0° 63° (ENE) 3,253 - -60.0°
